CW1509 Weather Reports


time (UTC)temp
F
wind
direction
speed
knots
gust
knots
rain 1hr
in
rain 24hr
in
rain mn
in
humidity
%
barometer
mb
20260509090443 51 160 0.0 3.5 0.00 0.00 0.00 90 1005.0
20260509085923 51 195 0.9 3.5 0.00 0.00 0.00 90 1005.0
20260509085423 51 186 0.9 3.5 0.00 0.00 0.00 90 1005.1
20260509084925 51 200 0.9 2.6 0.00 0.00 0.00 90 1005.0
20260509084446 51 202 0.0 2.6 0.00 0.00 0.00 90 1005.0
20260509083947 51 205 0.0 0.9 0.00 0.00 0.00 89 1005.1
20260509083425 51 232 0.0 3.5 0.00 0.00 0.00 89 1005.0
20260509082926 51 171 0.9 3.5 0.00 0.00 0.00 89 1005.0
20260509082428 51 207 0.9 3.5 0.00 0.00 0.00 89 1005.0
20260509081928 52 178 0.0 2.6 0.00 0.00 0.00 89 1005.1
20260509081429 52 182 0.0 2.6 0.00 0.00 0.00 89 1005.2
20260509080928 52 360 0.0 2.6 0.00 0.00 0.00 88 1005.2
20260509080429 52 360 0.0 2.6 0.00 0.00 0.00 88 1005.2
20260509075949 52 360 0.0 2.6 0.00 0.00 0.00 88 1005.3
20260509075429 52 360 0.0 2.6 0.00 0.00 0.00 88 1005.3
20260509074928 52 360 0.0 1.7 0.00 0.00 0.00 88 1005.2
20260509074429 52 360 0.9 1.7 0.00 0.00 0.00 87 1005.3
20260509073928 52 360 0.0 1.7 0.00 0.00 0.00 87 1005.4
20260509073429 52 360 0.0 1.7 0.00 0.00 0.00 87 1005.3
20260509072948 52 360 0.0 0.0 0.00 0.00 0.00 87 1005.3
20260509072428 52 360 0.0 0.0 0.00 0.00 0.00 87 1005.4
20260509071929 52 360 0.0 2.6 0.00 0.00 0.00 87 1005.5
20260509071431 53 360 0.0 2.6 0.00 0.00 0.00 87 1005.6
20260509070929 53 360 0.9 2.6 0.00 0.00 0.00 87 1005.6
20260509070449 53 360 0.0 2.6 0.00 0.00 0.00 86 1005.7
20260509065928 53 360 0.9 2.6 0.00 0.00 0.00 86 1005.5
20260509065428 53 360 0.0 0.0 0.00 0.00 0.00 86 1005.7
20260509064929 53 360 0.0 1.7 0.00 0.00 0.00 85 1005.7
20260509064431 53 360 0.9 1.7 0.00 0.00 0.00 85 1005.7
20260509063932 53 360 0.0 2.6 0.00 0.00 0.00 85 1005.7
20260509063453 53 360 0.0 0.9 0.00 0.00 0.00 85 1005.8
20260509062952 53 360 0.0 1.7 0.00 0.00 0.00 84 1005.8
20260509062432 53 360 0.0 2.6 0.00 0.00 0.00 84 1005.8
20260509061932 53 360 0.9 2.6 0.00 0.00 0.00 84 1005.8
20260509061431 53 360 0.0 0.9 0.00 0.00 0.00 83 1005.8
20260509060951 53 360 0.0 0.9 0.00 0.00 0.00 83 1005.9
20260509060431 53 360 0.0 2.6 0.00 0.01 0.00 83 1006.0
20260509055946 54 360 1.7 2.6 0.00 0.01 0.00 83 1006.1
20260509055426 54 360 0.0 0.0 0.00 0.01 0.00 82 1006.2
20260509054927 54 360 0.0 0.0 0.00 0.01 0.00 82 1006.2
20260509054428 54 360 0.0 0.0 0.00 0.01 0.00 82 1006.2
20260509053926 54 360 0.0 1.7 0.00 0.01 0.00 82 1006.3
20260509053427 54 360 0.0 1.7 0.00 0.01 0.00 81 1006.2
20260509052926 54 360 0.0 0.9 0.00 0.01 0.00 81 1006.2
20260509052425 54 360 0.0 1.7 0.00 0.01 0.00 81 1006.2
20260509051927 54 360 0.0 1.7 0.00 0.01 0.00 80 1006.4
20260509051413 54 360 0.0 2.6 0.00 0.01 0.00 80 1006.2
20260509050914 54 360 0.0 2.6 0.00 0.01 0.00 79 1006.3
20260509050414 55 360 0.0 0.9 0.00 0.01 0.00 79 1006.3
20260509045916 55 360 0.0 2.6 0.00 0.01 0.00 79 1006.4
20260509045416 55 360 0.9 2.6 0.00 0.01 0.00 79 1006.3
20260509044915 55 360 0.0 2.6 0.00 0.01 0.00 78 1006.4
20260509044418 55 360 0.9 2.6 0.00 0.01 0.00 78 1006.5
20260509043917 55 360 0.0 0.9 0.00 0.01 0.00 78 1006.5
20260509043418 55 360 0.0 0.9 0.00 0.01 0.00 78 1006.5
20260509042936 55 360 0.0 1.7 0.00 0.01 0.00 77 1006.6
20260509042415 55 360 0.0 1.7 0.00 0.01 0.00 77 1006.6
20260509041916 55 360 0.0 0.0 0.00 0.01 0.00 77 1006.6
20260509041416 56 360 0.0 0.0 0.00 0.01 0.00 77 1006.7
20260509040917 56 360 0.0 2.6 0.00 0.01 0.00 77 1006.6
20260509040434 56 360 0.0 2.6 0.00 0.01 0.01 77 1006.6
20260509035914 56 360 0.0 0.0 0.00 0.01 0.01 77 1006.6
20260509035434 56 360 0.0 0.0 0.00 0.01 0.01 77 1006.7
20260509034934 56 360 0.0 0.0 0.00 0.01 0.01 77 1006.7
20260509034413 56 360 0.0 0.0 0.00 0.01 0.01 77 1006.8
20260509033914 56 360 0.0 2.6 0.00 0.01 0.01 77 1006.8
20260509033414 56 360 0.0 2.6 0.00 0.01 0.01 77 1006.8
20260509032913 56 360 0.0 1.7 0.00 0.01 0.01 77 1007.0
20260509032413 56 360 0.0 1.7 0.00 0.01 0.01 77 1007.1
20260509031913 56 360 0.0 0.9 0.00 0.01 0.01 78 1007.1
20260509031415 56 360 0.0 1.7 0.00 0.01 0.01 78 1007.1
20260509030936 56 360 0.9 3.5 0.00 0.01 0.01 78 1007.0
20260509030435 56 360 1.7 2.6 0.00 0.01 0.01 78 1007.0
20260509025955 56 360 0.0 2.6 0.00 0.01 0.01 78 1007.0
20260509025435 56 360 0.9 2.6 0.00 0.01 0.01 77 1007.0
20260509024915 56 360 0.0 0.0 0.00 0.01 0.01 77 1007.1
20260509024415 57 360 0.0 0.0 0.00 0.01 0.01 77 1007.2
20260509023914 57 360 0.0 0.0 0.00 0.01 0.01 76 1007.2
20260509023414 57 360 0.0 0.0 0.00 0.01 0.01 76 1007.1
20260509022914 57 360 0.0 0.0 0.00 0.01 0.01 75 1007.1
20260509022414 57 360 0.0 0.0 0.00 0.01 0.01 74 1007.2
20260509021915 57 360 0.0 0.0 0.00 0.01 0.01 74 1007.1
20260509021416 58 360 0.0 0.0 0.00 0.01 0.01 73 1007.2
20260509020917 58 360 0.0 0.0 0.00 0.01 0.01 72 1007.2
20260509020416 58 360 0.0 0.0 0.00 0.01 0.01 73 1007.2
20260509015916 58 360 0.0 0.0 0.00 0.01 0.01 73 1007.1
20260509015417 58 360 0.0 0.0 0.00 0.01 0.01 72 1007.2
20260509014937 59 360 0.0 0.0 0.00 0.01 0.01 71 1007.3
20260509014418 59 360 0.0 0.0 0.00 0.01 0.01 71 1007.1
20260509013918 59 360 0.0 0.0 0.00 0.01 0.01 70 1007.3
20260509013419 59 360 0.0 0.0 0.00 0.01 0.01 69 1007.2
20260509012921 60 360 0.0 0.0 0.00 0.01 0.01 67 1007.3
20260509012422 60 360 0.0 0.0 0.00 0.01 0.01 66 1007.2
20260509011923 60 360 0.0 0.0 0.00 0.01 0.01 66 1007.2
20260509011423 60 360 0.0 0.0 0.00 0.01 0.01 64 1007.1
20260509010923 61 360 0.0 0.0 0.00 0.01 0.01 63 1007.1
20260509010442 61 360 0.0 0.0 0.00 0.06 0.01 64 1007.1
20260509005922 61 360 0.0 0.0 0.00 0.06 0.01 63 1007.1
20260509005424 61 360 0.0 0.0 0.00 0.06 0.01 62 1007.0
20260509004924 62 360 0.0 0.0 0.00 0.06 0.01 60 1006.9
20260509004424 62 360 0.0 0.0 0.00 0.06 0.01 59 1007.0
20260509003924 62 360 0.0 0.0 0.00 0.06 0.01 58 1007.1
20260509003425 62 360 0.0 0.0 0.00 0.06 0.01 56 1006.9
20260509002927 62 238 0.0 0.0 0.00 0.06 0.01 55 1006.9
20260509002425 63 238 0.0 0.0 0.00 0.06 0.01 54 1006.8
20260509001927 63 201 0.0 0.0 0.00 0.06 0.01 53 1006.8
20260509001427 63 201 0.0 0.0 0.00 0.06 0.01 52 1006.8
20260509000927 63 201 0.0 0.0 0.00 0.06 0.01 52 1006.7
20260509000448 63 143 0.0 2.6 0.00 0.06 0.01 51 1006.7
20260508235929 63 219 0.9 2.6 0.00 0.06 0.01 53 1006.8
20260508235430 63 176 0.0 1.7 0.00 0.06 0.01 53 1006.7
20260508234949 64 176 0.0 1.7 0.00 0.06 0.01 52 1006.7
20260508234430 64 161 0.0 1.7 0.00 0.06 0.01 52 1006.8
20260508233931 64 139 0.0 3.5 0.00 0.06 0.01 52 1006.8
20260508233432 64 209 1.7 3.5 0.00 0.06 0.01 51 1006.9
20260508232913 64 205 0.9 1.7 0.00 0.06 0.01 51 1006.9
20260508232432 65 261 0.0 3.5 0.00 0.06 0.01 51 1006.9
20260508231913 65 255 0.9 3.5 0.00 0.06 0.01 51 1006.9
20260508231433 65 216 1.7 4.3 0.00 0.06 0.01 50 1007.0
20260508230933 65 186 1.7 3.5 0.00 0.06 0.01 51 1006.9
20260508230415 65 175 0.9 2.6 0.00 0.06 0.01 52 1007.0
20260508225934 65 221 0.9 5.2 0.00 0.06 0.01 50 1006.9
20260508225449 65 236 1.7 5.2 0.00 0.06 0.01 49 1007.0
20260508224913 65 248 1.7 4.3 0.00 0.06 0.01 50 1007.0
20260508224428 65 20 1.7 3.5 0.00 0.06 0.01 51 1006.9
20260508223949 65 159 0.0 4.3 0.00 0.06 0.01 52 1007.0
20260508223428 65 249 2.6 4.3 0.00 0.06 0.01 53 1007.1
20260508222930 65 176 0.9 4.3 0.00 0.06 0.01 53 1007.0
20260508222430 65 252 0.9 6.1 0.00 0.06 0.01 53 1006.9
20260508221928 65 219 1.7 3.5 0.00 0.06 0.01 52 1007.0
20260508221428 65 26 0.9 2.6 0.00 0.06 0.01 51 1007.0
20260508220928 65 205 0.9 3.5 0.00 0.06 0.01 53 1007.1
20260508220428 65 253 1.7 4.3 0.00 0.06 0.01 53 1007.1
20260508215929 65 235 1.7 5.2 0.00 0.06 0.01 55 1007.1
20260508215428 65 211 0.0 3.5 0.00 0.06 0.01 55 1007.0
20260508214930 65 175 0.0 2.6 0.00 0.06 0.01 54 1007.0
20260508214430 65 260 0.9 4.3 0.00 0.06 0.01 54 1007.0
20260508213951 64 238 1.7 4.3 0.00 0.06 0.01 54 1007.0
20260508213428 64 208 1.7 4.3 0.00 0.06 0.01 52 1007.1
20260508212949 64 265 0.0 4.3 0.00 0.06 0.01 52 1007.1
20260508212429 64 181 1.7 4.3 0.00 0.06 0.01 51 1007.1
20260508211929 64 175 1.7 3.5 0.00 0.06 0.01 55 1007.3
20260508211430 64 188 1.7 3.5 0.00 0.06 0.01 53 1007.2
20260508210929 64 253 1.7 3.5 0.00 0.06 0.01 54 1007.2
20260508210430 64 219 1.7 6.1 0.00 0.06 0.01 53 1007.3
20260508205931 64 259 1.7 6.1 0.00 0.06 0.01 54 1007.4
20260508205413 65 192 3.5 5.2 0.00 0.06 0.01 53 1007.4
20260508204933 65 210 2.6 5.2 0.00 0.06 0.01 56 1007.5
20260508204453 65 277 1.7 5.2 0.00 0.06 0.01 56 1007.5
20260508203914 64 194 1.7 5.2 0.00 0.06 0.01 55 1007.5
20260508203436 65 181 3.5 6.1 0.00 0.06 0.01 56 1007.6
20260508202936 64 180 2.6 6.1 0.00 0.06 0.01 55 1007.6
20260508202435 64 221 2.6 7.0 0.00 0.06 0.01 58 1007.7
20260508201955 64 192 2.6 6.1 0.00 0.06 0.01 57 1007.7
20260508201453 64 207 1.7 6.1 0.00 0.06 0.01 57 1007.8
20260508200914 64 176 2.6 6.1 0.00 0.06 0.01 58 1008.0
20260508200416 64 133 0.9 5.2 0.00 0.06 0.01 59 1007.9
20260508195915 64 198 2.6 6.1 0.00 0.06 0.01 56 1008.0
20260508195414 64 189 2.6 6.1 0.00 0.06 0.01 56 1008.1
20260508194934 64 254 2.6 4.3 0.00 0.06 0.01 57 1008.1
20260508194453 63 117 0.9 3.5 0.00 0.06 0.01 57 1008.1
20260508193932 63 261 1.7 5.2 0.00 0.06 0.01 56 1008.2
20260508193415 63 200 2.6 5.2 0.00 0.06 0.01 58 1008.3
20260508192916 63 224 0.9 6.1 0.00 0.06 0.01 57 1008.3
20260508192416 64 78 0.9 4.3 0.00 0.06 0.01 58 1008.4
20260508191916 64 167 0.9 5.2 0.00 0.06 0.01 57 1008.5
20260508191417 64 202 0.9 7.0 0.00 0.06 0.01 58 1008.6
20260508190916 64 128 4.3 7.0 0.00 0.06 0.01 58 1008.7
20260508190417 64 191 1.7 5.2 0.00 0.06 0.01 60 1008.7
20260508185916 64 187 3.5 6.1 0.00 0.06 0.01 58 1008.8
20260508185418 64 158 2.6 6.1 0.00 0.06 0.01 57 1008.9
20260508184936 64 217 3.5 6.1 0.00 0.06 0.01 58 1009.0
20260508184415 64 121 0.9 7.0 0.00 0.06 0.01 58 1009.1
20260508183914 64 142 1.7 7.0 0.00 0.06 0.01 59 1009.1
20260508183414 64 214 1.7 5.2 0.00 0.06 0.01 55 1009.1
20260508182915 64 180 1.7 5.2 0.00 0.06 0.01 56 1009.2
20260508182431 64 148 1.7 6.1 0.00 0.06 0.01 56 1009.2
20260508181951 64 248 2.6 6.1 0.00 0.06 0.01 54 1009.4
20260508181430 64 169 0.0 4.3 0.00 0.06 0.01 54 1009.2
20260508180931 64 243 0.0 4.3 0.00 0.06 0.01 51 1009.5
20260508180430 64 222 1.7 4.3 0.00 0.06 0.01 49 1009.5
20260508175931 64 211 1.7 5.2 0.00 0.06 0.01 50 1009.5
20260508175431 64 285 1.7 6.1 0.00 0.06 0.01 45 1009.6
20260508174931 64 256 1.7 6.1 0.00 0.06 0.01 44 1009.6
20260508174430 64 178 1.7 4.3 0.00 0.06 0.01 45 1009.7
20260508173931 64 199 1.7 4.3 0.00 0.06 0.01 45 1009.7
20260508173429 64 158 0.9 3.5 0.00 0.06 0.01 48 1009.7
20260508172926 63 223 0.9 5.2 0.00 0.06 0.01 45 1010.0
20260508172427 64 257 2.6 5.2 0.00 0.06 0.01 46 1010.2
20260508171923 63 210 0.9 4.3 0.00 0.06 0.01 47 1010.3
20260508171423 63 147 1.7 4.3 0.00 0.06 0.01 48 1010.3
20260508170943 63 178 1.7 4.3 0.00 0.06 0.01 50 1010.3
20260508170423 63 292 0.9 4.3 0.00 0.06 0.01 50 1010.5
20260508165924 63 221 0.9 4.3 0.00 0.06 0.01 50 1010.5
20260508165425 63 258 1.7 4.3 0.00 0.06 0.01 49 1010.6
20260508164925 63 177 0.9 6.1 0.00 0.06 0.01 48 1010.6
20260508164425 63 209 0.9 6.1 0.00 0.06 0.01 49 1010.6
20260508163926 62 219 1.7 4.3 0.00 0.06 0.01 49 1010.7
20260508163446 62 133 0.9 2.6 0.00 0.06 0.01 52 1010.7
20260508162915 61 360 0.9 4.3 0.00 0.06 0.01 54 1010.7
20260508162415 61 360 2.6 4.3 0.00 0.06 0.01 50 1010.8
20260508161915 60 360 1.7 4.3 0.00 0.06 0.01 53 1011.0
20260508161416 60 216 1.7 4.3 0.00 0.06 0.01 52 1011.0
20260508160916 59 360 0.9 7.0 0.00 0.06 0.01 62 1011.0
20260508160416 59 360 2.6 7.0 0.00 0.06 0.01 59 1011.0
20260508155935 58 360 0.9 4.3 0.00 0.06 0.01 62 1011.1
20260508155414 58 360 0.9 4.3 0.00 0.06 0.01 64 1011.1
20260508154915 57 360 0.0 4.3 0.00 0.06 0.01 61 1011.1
20260508154416 57 360 0.9 4.3 0.00 0.06 0.01 66 1011.1
20260508153917 57 360 1.7 5.2 0.00 0.06 0.01 69 1011.2
20260508153416 56 360 0.9 3.5 0.00 0.06 0.01 73 1011.1
20260508152916 56 360 0.0 2.6 0.00 0.06 0.01 76 1011.1
20260508152436 56 360 0.9 3.5 0.00 0.06 0.01 75 1011.1
20260508151935 55 360 0.9 4.3 0.00 0.06 0.01 76 1011.1
20260508151437 55 360 2.6 4.3 0.00 0.06 0.01 76 1011.1
20260508150915 55 360 1.7 2.6 0.00 0.06 0.01 77 1011.2
20260508150415 55 360 0.9 2.6 0.00 0.06 0.01 78 1011.2
20260508145916 55 360 0.9 2.6 0.00 0.06 0.01 79 1011.0
20260508144916 54 360 2.6 4.3 0.00 0.06 0.01 80 1011.0
20260508144416 54 360 0.0 4.3 0.00 0.06 0.01 83 1011.0
20260508143916 53 360 1.7 4.3 0.00 0.06 0.01 83 1011.0
20260508143435 53 360 0.0 1.7 0.00 0.06 0.01 83 1011.1
20260508142916 53 360 0.0 3.5 0.00 0.06 0.01 83 1011.0
20260508142417 52 360 1.7 3.5 0.00 0.06 0.01 84 1011.2
20260508141917 52 360 0.0 2.6 0.00 0.06 0.01 85 1011.2
20260508141418 52 360 0.0 3.5 0.00 0.06 0.01 86 1011.3
20260508140919 52 360 0.0 3.5 0.00 0.06 0.01 86 1011.4
20260508140419 52 360 0.0 2.6 0.00 0.06 0.01 87 1011.6
20260508135919 51 360 0.9 4.3 0.00 0.06 0.01 87 1011.6
20260508135440 51 360 0.0 4.3 0.00 0.06 0.01 88 1011.6
20260508134917 51 360 0.9 2.6 0.00 0.06 0.01 89 1011.5
20260508134417 51 360 0.0 2.6 0.00 0.06 0.01 90 1011.6
20260508133916 50 360 0.9 4.3 0.00 0.06 0.01 92 1011.6
20260508133417 50 360 1.7 4.3 0.00 0.06 0.01 92 1011.7
20260508132918 49 360 0.0 3.5 0.00 0.06 0.01 94 1011.7
20260508132416 48 360 0.0 3.5 0.00 0.06 0.01 94 1011.7
20260508131917 48 360 1.7 3.5 0.00 0.06 0.01 94 1011.6
20260508131418 48 360 0.0 0.0 0.00 0.06 0.01 94 1011.4
20260508130919 48 360 0.0 0.0 0.00 0.06 0.01 95 1011.5
20260508130440 47 360 0.0 0.0 0.00 0.06 0.01 95 1011.6
20260508125919 46 360 0.0 0.9 0.00 0.06 0.01 95 1011.7
20260508125419 46 360 0.0 1.7 0.00 0.06 0.01 95 1011.7
20260508124919 46 360 0.0 1.7 0.00 0.06 0.01 94 1011.7
20260508124421 46 360 0.0 2.6 0.00 0.06 0.01 94 1011.6
20260508123922 45 360 0.9 2.6 0.00 0.06 0.01 95 1011.7
20260508123423 45 360 0.0 0.0 0.00 0.06 0.01 94 1011.7
20260508122924 45 360 0.0 2.6 0.00 0.06 0.01 94 1011.6
20260508122425 44 360 0.9 2.6 0.00 0.06 0.01 94 1011.7
20260508121925 44 360 0.9 2.6 0.00 0.06 0.01 94 1011.6
20260508121427 44 360 0.9 2.6 0.00 0.06 0.01 94 1011.6
20260508120927 43 360 0.0 0.0 0.00 0.06 0.01 94 1011.7
20260508120429 43 360 0.0 0.0 0.00 0.06 0.01 94 1011.5
20260508115928 43 360 0.0 0.0 0.00 0.06 0.01 94 1011.5
20260508115428 42 360 0.0 0.0 0.00 0.06 0.01 94 1011.3
20260508114929 42 360 0.0 0.0 0.00 0.06 0.01 94 1011.3
20260508114429 41 360 0.0 0.0 0.00 0.06 0.01 94 1011.3
20260508113930 41 360 0.0 0.0 0.00 0.06 0.01 93 1011.2
20260508113430 41 360 0.0 0.0 0.00 0.06 0.01 93 1011.2
20260508112929 40 360 0.0 0.0 0.00 0.06 0.01 93 1011.3
20260508112430 40 360 0.0 0.0 0.00 0.06 0.01 93 1011.1
20260508111932 40 360 0.0 0.0 0.00 0.06 0.01 92 1011.2
20260508111433 40 360 0.0 0.0 0.00 0.06 0.01 92 1011.2
20260508110933 40 360 0.0 0.0 0.00 0.06 0.01 92 1011.2
20260508110453 40 360 0.0 0.0 0.00 0.06 0.01 92 1011.2
20260508105930 40 360 0.0 0.0 0.00 0.06 0.01 92 1011.1
20260508105431 40 360 0.0 0.0 0.00 0.06 0.01 92 1010.8
20260508104931 40 360 0.0 0.0 0.00 0.06 0.01 92 1010.8
20260508104448 40 360 0.0 0.0 0.00 0.06 0.01 92 1010.8
20260508103926 41 360 0.0 0.0 0.00 0.06 0.01 92 1010.9
20260508103427 41 360 0.0 0.0 0.00 0.06 0.01 92 1010.9
20260508102928 41 360 0.0 0.0 0.00 0.06 0.01 92 1010.9
20260508102427 41 360 0.0 0.0 0.00 0.06 0.01 92 1010.9
20260508101929 41 360 0.0 0.0 0.00 0.06 0.01 92 1010.9
20260508101428 41 360 0.0 0.0 0.00 0.06 0.01 92 1010.9
20260508100927 41 360 0.0 0.0 0.00 0.06 0.01 92 1010.9
20260508100429 41 360 0.0 0.0 0.00 0.06 0.01 92 1010.9
20260508095930 41 360 0.0 0.0 0.00 0.06 0.01 92 1011.0
20260508095449 41 360 0.0 0.0 0.00 0.06 0.01 92 1010.9
20260508094930 41 360 0.0 0.0 0.00 0.06 0.01 92 1010.9
20260508094431 41 360 0.0 0.0 0.00 0.06 0.01 92 1010.9
20260508093931 41 360 0.0 0.0 0.00 0.06 0.01 92 1010.9
20260508093431 41 360 0.0 0.0 0.00 0.06 0.01 92 1011.0
20260508092913 41 360 0.0 0.0 0.00 0.06 0.01 92 1011.0
20260508092433 41 360 0.0 0.0 0.00 0.06 0.01 92 1011.0
20260508091913 41 360 0.0 0.0 0.00 0.06 0.01 92 1011.0
20260508091414 41 360 0.0 0.0 0.00 0.06 0.01 91 1011.0
20260508090915 41 360 0.0 0.0 0.00 0.06 0.01 91 1011.0
20260508090655 41 360 0.0 0.0 0.00 0.06 0.01 91 1011.0